| time (UTC) | temp F | wind direction | speed MPH | gust MPH | rain 1hr in | rain 24hr in | rain mn in | humidity % | barometer mb |
| 20260504120131 | 47 | 0 | 1.0 | 3.0 | 0.00 | 0.00 | 0.00 | 71 | 1007.2 |
| 20260504110601 | 44 | 235 | 0.0 | 7.0 | 0.00 | 0.00 | 0.00 | 80 | 1007.5 |
| 20260504100557 | 42 | 0 | 0.0 | 3.0 | 0.00 | 0.00 | 0.00 | 84 | 1007.5 |
| 20260504090105 | 41 | 25 | 1.0 | 4.0 | 0.00 | 0.00 | 0.00 | 84 | 1007.5 |
| 20260504081603 | 41 | 120 | 0.0 | 3.0 | 0.00 | 0.00 | 0.00 | 79 | 1007.4 |
| 20260504081056 | 41 | 0 | 0.0 | 4.0 | 0.00 | 0.00 | 0.00 | 78 | 1007.6 |
| 20260504080556 | 42 | 0 | 0.0 | 4.0 | 0.00 | 0.00 | 0.00 | 77 | 1007.6 |
| 20260504080104 | 42 | 213 | 1.0 | 4.0 | 0.00 | 0.00 | 0.00 | 77 | 1007.8 |
| 20260504060106 | 40 | 200 | 0.0 | 2.0 | 0.00 | 0.00 | 0.00 | 72 | 1008.0 |
| 20260504050557 | 42 | 228 | 3.0 | 6.0 | 0.00 | 0.00 | 0.00 | 58 | 1008.0 |
| 20260504045600 | 42 | 236 | 2.0 | 6.0 | 0.00 | 0.00 | 0.00 | 55 | 1008.0 |
| 20260504045056 | 41 | 227 | 1.0 | 4.0 | 0.00 | 0.00 | 0.00 | 56 | 1008.0 |
| 20260504044559 | 41 | 227 | 2.0 | 11.0 | 0.00 | 0.00 | 0.00 | 56 | 1008.1 |
| 20260504044058 | 41 | 227 | 3.0 | 11.0 | 0.00 | 0.00 | 0.00 | 57 | 1008.2 |
| 20260504043558 | 41 | 225 | 5.0 | 11.0 | 0.00 | 0.00 | 0.00 | 56 | 1008.2 |
| 20260504043114 | 40 | 231 | 2.0 | 5.0 | 0.00 | 0.00 | 0.00 | 56 | 1008.2 |
| 20260504042557 | 40 | 148 | 2.0 | 4.0 | 0.00 | 0.00 | 0.00 | 56 | 1008.3 |
| 20260504042101 | 40 | 215 | 1.0 | 4.0 | 0.00 | 0.00 | 0.00 | 54 | 1008.4 |
| 20260504041558 | 40 | 213 | 2.0 | 4.0 | 0.00 | 0.00 | 0.00 | 55 | 1008.4 |
| 20260504041057 | 40 | 205 | 2.0 | 4.0 | 0.00 | 0.00 | 0.00 | 56 | 1008.4 |
| 20260504040600 | 40 | 189 | 1.0 | 3.0 | 0.00 | 0.00 | 0.00 | 56 | 1008.2 |
| 20260504040059 | 41 | 0 | 1.0 | 5.0 | 0.00 | 0.00 | 0.00 | 54 | 1008.3 |
| 20260504035558 | 41 | 211 | 2.0 | 7.0 | 0.00 | 0.00 | 0.00 | 52 | 1008.3 |
| 20260504035056 | 41 | 236 | 1.0 | 7.0 | 0.00 | 0.00 | 0.00 | 52 | 1008.2 |
| 20260504034600 | 41 | 225 | 2.0 | 6.0 | 0.00 | 0.00 | 0.00 | 52 | 1008.2 |
| 20260504034059 | 40 | 248 | 2.0 | 6.0 | 0.00 | 0.00 | 0.00 | 54 | 1008.3 |
| 20260504033557 | 39 | 209 | 2.0 | 6.0 | 0.00 | 0.00 | 0.00 | 56 | 1008.2 |
| 20260504033107 | 39 | 217 | 0.0 | 3.0 | 0.00 | 0.00 | 0.00 | 57 | 1008.2 |
| 20260504032557 | 38 | 0 | 1.0 | 3.0 | 0.00 | 0.00 | 0.00 | 59 | 1008.2 |
| 20260504032057 | 38 | 102 | 0.0 | 4.0 | 0.00 | 0.00 | 0.00 | 61 | 1008.1 |
| 20260504031559 | 38 | 102 | 1.0 | 4.0 | 0.00 | 0.00 | 0.00 | 60 | 1008.2 |
| 20260504031057 | 37 | 102 | 1.0 | 4.0 | 0.00 | 0.00 | 0.00 | 60 | 1008.2 |
| 20260504030557 | 37 | 73 | 1.0 | 4.0 | 0.00 | 0.00 | 0.00 | 61 | 1008.2 |
| 20260504030115 | 36 | 281 | 0.0 | 3.0 | 0.00 | 0.00 | 0.00 | 64 | 1008.2 |
| 20260504025557 | 36 | 0 | 0.0 | 3.0 | 0.00 | 0.00 | 0.00 | 63 | 1008.3 |
| 20260504025057 | 37 | 281 | 0.0 | 4.0 | 0.00 | 0.00 | 0.00 | 62 | 1008.3 |
| 20260504024559 | 38 | 86 | 2.0 | 4.0 | 0.00 | 0.00 | 0.00 | 59 | 1008.4 |
| 20260504024057 | 39 | 86 | 2.0 | 4.0 | 0.00 | 0.00 | 0.00 | 56 | 1008.3 |
| 20260504023557 | 39 | 96 | 2.0 | 3.0 | 0.00 | 0.00 | 0.00 | 56 | 1008.4 |
| 20260504023057 | 39 | 92 | 1.0 | 3.0 | 0.00 | 0.00 | 0.00 | 56 | 1008.4 |
| 20260504022559 | 39 | 92 | 1.0 | 3.0 | 0.00 | 0.00 | 0.00 | 56 | 1008.4 |
| 20260504022100 | 39 | 0 | 0.0 | 3.0 | 0.00 | 0.00 | 0.00 | 57 | 1008.4 |
| 20260504021558 | 39 | 91 | 0.0 | 3.0 | 0.00 | 0.00 | 0.00 | 55 | 1008.4 |
| 20260504021057 | 40 | 91 | 1.0 | 3.0 | 0.00 | 0.00 | 0.00 | 53 | 1008.4 |
| 20260504020559 | 41 | 91 | 1.0 | 3.0 | 0.00 | 0.00 | 0.00 | 52 | 1008.3 |
| 20260504020107 | 41 | 135 | 1.0 | 3.0 | 0.00 | 0.00 | 0.00 | 52 | 1008.5 |
| 20260504015558 | 41 | 17 | 1.0 | 4.0 | 0.00 | 0.00 | 0.00 | 51 | 1008.5 |
| 20260504015058 | 40 | 70 | 1.0 | 5.0 | 0.00 | 0.00 | 0.00 | 54 | 1008.5 |
| 20260504014606 | 40 | 225 | 0.0 | 5.0 | 0.00 | 0.00 | 0.00 | 54 | 1008.4 |
| 20260504014057 | 40 | 235 | 0.0 | 2.0 | 0.00 | 0.00 | 0.00 | 54 | 1008.5 |
| 20260504013557 | 41 | 0 | 0.0 | 2.0 | 0.00 | 0.00 | 0.00 | 53 | 1008.5 |
| 20260504013057 | 41 | 0 | 0.0 | 2.0 | 0.00 | 0.00 | 0.00 | 53 | 1008.5 |
| 20260504012557 | 40 | 0 | 0.0 | 0.0 | 0.00 | 0.00 | 0.00 | 53 | 1008.3 |
| 20260504012057 | 40 | 0 | 0.0 | 1.0 | 0.00 | 0.00 | 0.00 | 54 | 1008.4 |
| 20260504011558 | 41 | 0 | 0.0 | 2.0 | 0.00 | 0.00 | 0.00 | 54 | 1008.4 |
| 20260504011058 | 40 | 0 | 0.0 | 2.0 | 0.00 | 0.00 | 0.00 | 55 | 1008.3 |
| 20260504010556 | 40 | 0 | 0.0 | 2.0 | 0.00 | 0.00 | 0.00 | 55 | 1008.3 |
| 20260504005600 | 41 | 240 | 1.0 | 4.0 | 0.00 | 0.00 | 0.00 | 54 | 1008.1 |
| 20260504005058 | 41 | 240 | 1.0 | 4.0 | 0.00 | 0.00 | 0.00 | 55 | 1008.1 |
| 20260504004558 | 41 | 240 | 1.0 | 4.0 | 0.00 | 0.00 | 0.00 | 56 | 1007.9 |
| 20260504004058 | 41 | 282 | 1.0 | 3.0 | 0.00 | 0.00 | 0.00 | 56 | 1007.9 |
| 20260504003557 | 40 | 0 | 0.0 | 3.0 | 0.00 | 0.00 | 0.00 | 56 | 1007.8 |
| 20260504003109 | 41 | 264 | 1.0 | 3.0 | 0.00 | 0.00 | 0.00 | 57 | 1007.9 |
| 20260504002557 | 41 | 264 | 1.0 | 3.0 | 0.00 | 0.00 | 0.00 | 55 | 1007.9 |
| 20260504002100 | 42 | 264 | 1.0 | 2.0 | 0.00 | 0.00 | 0.00 | 53 | 1007.9 |
| 20260504001602 | 42 | 0 | 0.0 | 1.0 | 0.00 | 0.00 | 0.00 | 53 | 1007.9 |
| 20260504001056 | 42 | 0 | 0.0 | 2.0 | 0.00 | 0.00 | 0.00 | 53 | 1007.9 |
| 20260504000601 | 42 | 0 | 0.0 | 2.0 | 0.00 | 0.00 | 0.00 | 53 | 1007.8 |
| 20260504000103 | 42 | 0 | 0.0 | 3.0 | 0.00 | 0.00 | 0.00 | 52 | 1007.8 |
| 20260503235559 | 43 | 0 | 0.0 | 6.0 | 0.00 | 0.00 | 0.00 | 52 | 1007.9 |
| 20260503235058 | 43 | 0 | 2.0 | 8.0 | 0.00 | 0.00 | 0.00 | 52 | 1007.8 |
| 20260503234601 | 44 | 243 | 2.0 | 8.0 | 0.00 | 0.00 | 0.00 | 51 | 1007.7 |
| 20260503234101 | 44 | 247 | 2.0 | 8.0 | 0.00 | 0.00 | 0.00 | 51 | 1007.6 |
| 20260503233602 | 44 | 298 | 1.0 | 8.0 | 0.00 | 0.00 | 0.00 | 52 | 1007.6 |
| 20260503233110 | 44 | 244 | 2.0 | 8.0 | 0.00 | 0.00 | 0.00 | 52 | 1007.6 |
| 20260503232600 | 44 | 297 | 2.0 | 9.0 | 0.00 | 0.00 | 0.00 | 51 | 1007.7 |
| 20260503232057 | 44 | 169 | 3.0 | 10.0 | 0.00 | 0.00 | 0.00 | 50 | 1007.6 |
| 20260503231558 | 44 | 248 | 5.0 | 10.0 | 0.00 | 0.00 | 0.00 | 50 | 1007.7 |
| 20260503231101 | 44 | 305 | 2.0 | 11.0 | 0.00 | 0.00 | 0.00 | 50 | 1007.6 |
| 20260503230559 | 44 | 259 | 1.0 | 11.0 | 0.00 | 0.00 | 0.00 | 50 | 1007.5 |
| 20260503230113 | 44 | 293 | 4.0 | 10.0 | 0.00 | 0.00 | 0.00 | 49 | 1007.6 |
| 20260503225557 | 44 | 258 | 3.0 | 10.0 | 0.00 | 0.00 | 0.00 | 49 | 1007.4 |
| 20260503225057 | 45 | 40 | 2.0 | 9.0 | 0.00 | 0.00 | 0.00 | 49 | 1007.4 |
| 20260503224609 | 45 | 355 | 3.0 | 10.0 | 0.00 | 0.00 | 0.00 | 50 | 1007.4 |
| 20260503224057 | 45 | 250 | 3.0 | 12.0 | 0.00 | 0.00 | 0.00 | 51 | 1007.4 |
| 20260503223558 | 45 | 281 | 6.0 | 12.0 | 0.00 | 0.00 | 0.00 | 50 | 1007.5 |
| 20260503223111 | 45 | 259 | 4.0 | 12.0 | 0.00 | 0.00 | 0.00 | 51 | 1007.4 |
| 20260503222559 | 45 | 228 | 5.0 | 12.0 | 0.00 | 0.00 | 0.00 | 50 | 1007.4 |
| 20260503222100 | 46 | 255 | 2.0 | 12.0 | 0.00 | 0.00 | 0.00 | 50 | 1007.4 |
| 20260503221558 | 46 | 330 | 3.0 | 12.0 | 0.00 | 0.00 | 0.00 | 50 | 1007.3 |
| 20260503221058 | 45 | 323 | 6.0 | 12.0 | 0.00 | 0.00 | 0.00 | 54 | 1007.4 |
| 20260503220558 | 45 | 244 | 4.0 | 12.0 | 0.00 | 0.00 | 0.00 | 48 | 1007.4 |
| 20260503220059 | 46 | 327 | 3.0 | 12.0 | 0.00 | 0.00 | 0.00 | 48 | 1007.4 |
| 20260503215558 | 46 | 355 | 5.0 | 13.0 | 0.00 | 0.00 | 0.00 | 48 | 1007.3 |
| 20260503215059 | 47 | 331 | 5.0 | 14.0 | 0.00 | 0.00 | 0.00 | 47 | 1007.3 |
| 20260503214600 | 46 | 300 | 6.0 | 14.0 | 0.00 | 0.00 | 0.00 | 50 | 1007.3 |
| 20260503214058 | 46 | 349 | 4.0 | 13.0 | 0.00 | 0.00 | 0.00 | 50 | 1007.4 |
| 20260503213600 | 45 | 219 | 5.0 | 13.0 | 0.00 | 0.00 | 0.00 | 48 | 1007.4 |
| 20260503213057 | 47 | 325 | 6.0 | 13.0 | 0.00 | 0.00 | 0.00 | 48 | 1007.4 |
| 20260503212557 | 48 | 350 | 4.0 | 12.0 | 0.00 | 0.00 | 0.00 | 49 | 1007.5 |
| 20260503212057 | 46 | 328 | 3.0 | 12.0 | 0.00 | 0.00 | 0.00 | 52 | 1007.3 |
| 20260503211556 | 45 | 340 | 4.0 | 12.0 | 0.00 | 0.00 | 0.00 | 51 | 1007.4 |
| 20260503211057 | 45 | 166 | 3.0 | 10.0 | 0.00 | 0.00 | 0.00 | 51 | 1007.3 |
| 20260503210558 | 45 | 307 | 4.0 | 11.0 | 0.00 | 0.00 | 0.00 | 50 | 1007.3 |
| 20260503210058 | 45 | 13 | 5.0 | 12.0 | 0.00 | 0.00 | 0.00 | 50 | 1007.4 |
| 20260503205558 | 45 | 242 | 5.0 | 12.0 | 0.00 | 0.00 | 0.00 | 50 | 1007.3 |
| 20260503205058 | 45 | 167 | 2.0 | 12.0 | 0.00 | 0.00 | 0.00 | 54 | 1007.4 |
| 20260503204557 | 45 | 279 | 5.0 | 13.0 | 0.00 | 0.00 | 0.00 | 51 | 1007.3 |
| 20260503204057 | 45 | 294 | 4.0 | 13.0 | 0.00 | 0.00 | 0.00 | 52 | 1007.3 |
| 20260503203557 | 44 | 309 | 5.0 | 13.0 | 0.00 | 0.00 | 0.00 | 52 | 1007.2 |
| 20260503203058 | 44 | 331 | 3.0 | 10.0 | 0.00 | 0.00 | 0.00 | 54 | 1007.3 |
| 20260503202557 | 44 | 337 | 2.0 | 13.0 | 0.00 | 0.00 | 0.00 | 55 | 1007.2 |
| 20260503202057 | 44 | 13 | 5.0 | 13.0 | 0.00 | 0.00 | 0.00 | 54 | 1007.2 |
| 20260503201558 | 44 | 326 | 6.0 | 13.0 | 0.00 | 0.00 | 0.00 | 51 | 1007.4 |
| 20260503201059 | 44 | 306 | 5.0 | 16.0 | 0.00 | 0.00 | 0.00 | 54 | 1007.3 |
| 20260503200557 | 44 | 232 | 6.0 | 16.0 | 0.00 | 0.00 | 0.00 | 54 | 1007.3 |
| 20260503200058 | 44 | 247 | 4.0 | 13.0 | 0.00 | 0.00 | 0.00 | 53 | 1007.3 |
| 20260503195557 | 44 | 238 | 3.0 | 10.0 | 0.00 | 0.00 | 0.00 | 55 | 1007.4 |
| 20260503195057 | 44 | 340 | 1.0 | 11.0 | 0.00 | 0.00 | 0.00 | 57 | 1007.4 |
| 20260503194619 | 44 | 318 | 2.0 | 11.0 | 0.00 | 0.00 | 0.00 | 54 | 1007.5 |
| 20260503194058 | 44 | 270 | 5.0 | 12.0 | 0.00 | 0.00 | 0.00 | 53 | 1007.6 |
| 20260503193558 | 44 | 324 | 3.0 | 12.0 | 0.00 | 0.00 | 0.00 | 54 | 1007.6 |
| 20260503193056 | 43 | 285 | 6.0 | 12.0 | 0.00 | 0.00 | 0.00 | 55 | 1007.6 |
| 20260503192557 | 43 | 305 | 4.0 | 14.0 | 0.00 | 0.00 | 0.00 | 53 | 1007.7 |
| 20260503192059 | 43 | 23 | 5.0 | 14.0 | 0.00 | 0.00 | 0.00 | 52 | 1007.6 |
| 20260503191604 | 44 | 320 | 4.0 | 14.0 | 0.00 | 0.00 | 0.00 | 52 | 1007.7 |
| 20260503191057 | 44 | 308 | 5.0 | 16.0 | 0.00 | 0.00 | 0.00 | 50 | 1007.6 |
| 20260503190557 | 44 | 30 | 5.0 | 16.0 | 0.00 | 0.00 | 0.00 | 51 | 1007.6 |
| 20260503190058 | 45 | 257 | 5.0 | 17.0 | 0.00 | 0.00 | 0.00 | 50 | 1007.6 |
| 20260503185559 | 44 | 295 | 5.0 | 17.0 | 0.00 | 0.00 | 0.00 | 50 | 1007.5 |
| 20260503185103 | 45 | 301 | 7.0 | 17.0 | 0.00 | 0.00 | 0.00 | 50 | 1007.7 |
| 20260503184555 | 44 | 298 | 6.0 | 17.0 | 0.00 | 0.00 | 0.00 | 50 | 1007.6 |
| 20260503184059 | 45 | 317 | 9.0 | 15.0 | 0.00 | 0.00 | 0.00 | 50 | 1007.5 |
| 20260503183559 | 45 | 340 | 5.0 | 13.0 | 0.00 | 0.00 | 0.00 | 50 | 1007.6 |
| 20260503183101 | 44 | 19 | 6.0 | 17.0 | 0.00 | 0.00 | 0.00 | 47 | 1007.7 |
| 20260503182557 | 44 | 306 | 8.0 | 17.0 | 0.00 | 0.00 | 0.00 | 48 | 1007.6 |
| 20260503182057 | 44 | 355 | 9.0 | 17.0 | 0.00 | 0.00 | 0.00 | 46 | 1007.7 |
| 20260503181608 | 45 | 300 | 6.0 | 13.0 | 0.00 | 0.00 | 0.00 | 46 | 1007.6 |
| 20260503181101 | 45 | 268 | 6.0 | 13.0 | 0.00 | 0.00 | 0.00 | 47 | 1007.5 |
| 20260503180601 | 45 | 254 | 6.0 | 17.0 | 0.00 | 0.00 | 0.00 | 46 | 1007.6 |
| 20260503180101 | 46 | 9 | 6.0 | 27.0 | 0.00 | 0.00 | 0.00 | 45 | 1007.5 |
| 20260503175557 | 46 | 235 | 8.0 | 27.0 | 0.00 | 0.00 | 0.00 | 50 | 1007.5 |
| 20260503175059 | 45 | 266 | 12.0 | 21.0 | 0.00 | 0.00 | 0.00 | 48 | 1007.6 |
| 20260503174616 | 46 | 244 | 6.0 | 15.0 | 0.00 | 0.00 | 0.00 | 49 | 1007.5 |
| 20260503174102 | 46 | 360 | 5.0 | 15.0 | 0.00 | 0.00 | 0.00 | 48 | 1007.4 |
| 20260503173558 | 45 | 248 | 7.0 | 15.0 | 0.00 | 0.00 | 0.00 | 48 | 1007.5 |
| 20260503173110 | 45 | 263 | 3.0 | 15.0 | 0.00 | 0.00 | 0.00 | 48 | 1007.6 |
| 20260503172559 | 44 | 273 | 4.0 | 17.0 | 0.00 | 0.00 | 0.00 | 48 | 1007.6 |
| 20260503172057 | 44 | 293 | 6.0 | 17.0 | 0.00 | 0.00 | 0.00 | 47 | 1007.6 |
| 20260503171600 | 44 | 253 | 10.0 | 17.0 | 0.00 | 0.00 | 0.00 | 51 | 1007.5 |
| 20260503171058 | 45 | 345 | 6.0 | 16.0 | 0.00 | 0.00 | 0.00 | 50 | 1007.6 |
| 20260503170601 | 45 | 308 | 4.0 | 15.0 | 0.00 | 0.00 | 0.00 | 53 | 1007.6 |
| 20260503170114 | 45 | 345 | 4.0 | 13.0 | 0.00 | 0.00 | 0.00 | 52 | 1007.5 |
| 20260503150600 | 43 | 25 | 4.0 | 18.0 | 0.00 | 0.01 | 0.00 | 55 | 1008.3 |
| 20260503131057 | 43 | 17 | 4.0 | 9.0 | 0.00 | 0.01 | 0.00 | 71 | 1008.9 |
| 20260503130558 | 42 | 317 | 3.0 | 13.0 | 0.00 | 0.01 | 0.00 | 71 | 1008.8 |